Weather History for Kendall, FL

Change the Weather History Date:

Wednesday, November 16, 2011

  Actual Average Record
Temperature  
Mean Temperature 27 °C -  
Max Temperature 29 °C 27 °C 31 °C (1989)
Min Temperature 24 °C 17 °C 12 °C (2008)
Cooling Degree Days 14    
Growing Degree Days 30 (Base 50)    
Moisture  
Dew Point 22 °C    
Average Humidity 80    
Maximum Humidity 91    
Minimum Humidity 63    
Precipitation  
Precipitation 0.00 mm - - ()
Sea Level Pressure  
Sea Level Pressure 1016 hPa    
Wind  
Wind Speed 13 km/h (SE)    
Max Wind Speed 23 km/h    
Max Gust Speed 32 km/h    
Visibility 16 kilometers    
Events      
Averages and records for this station are not official NWS values.
T = Trace of Precipitation, MM = Missing Value Source: NWS Daily Summary

Daily Weather History Graph

Daily Weather History Graph

Search for Another Location

Airport:

Trip Planner

Search our weather history database for the weather conditions in past years. The results will help you decide how hot, cold, wet, or windy it might be!

Date:

Astronomy

Nov. 16, 2011 Rise Set
Actual Time 6:39 AM EST 5:32 PM EST
Civil Twilight 6:15 AM EST 5:57 PM EST
Nautical Twilight 5:47 AM EST 6:24 PM EST
Astronomical Twilight 5:20 AM EST 6:52 PM EST
Moon 10:39 PM EST (11/16) 11:17 AM EST (11/16)
Length of Visible Light 11h 41m
Length of Day
10h 52m
Waning Gibbous, 70% of the Moon is Illuminated
Nov 16
Waning Gibbous
Nov 18
Last Quarter
Nov 25
New
Dec 2
First Quarter
Dec 10
Full

Hourly Weather History & Observations

Time (EST) Temp. Heat Index Dew Point Humidity Pressure Visibility Wind Dir Wind Speed Gust Speed Precip Events Conditions
12:53 AM 25.0 °C - 23.3 °C 90% 1017.4 hPa 16.1 km ESE 13.0 km/h / 3.6 m/s - N/A   Partly Cloudy
1:53 AM 25.0 °C - 22.8 °C 88% 1017.1 hPa 16.1 km ESE 9.3 km/h / 2.6 m/s - N/A   Clear
2:53 AM 24.4 °C - 22.8 °C 91% 1016.6 hPa 16.1 km SE 11.1 km/h / 3.1 m/s - N/A   Clear
3:53 AM 24.4 °C - 22.8 °C 91% 1016.4 hPa 16.1 km SE 11.1 km/h / 3.1 m/s - N/A   Clear
4:53 AM 24.4 °C - 22.2 °C 87% 1016.3 hPa 16.1 km SE 13.0 km/h / 3.6 m/s - N/A   Clear
5:53 AM 24.4 °C - 22.2 °C 87% 1016.4 hPa 16.1 km SE 14.8 km/h / 4.1 m/s - N/A   Clear
6:53 AM 24.4 °C - 22.2 °C 87% 1016.8 hPa 16.1 km SE 11.1 km/h / 3.1 m/s - N/A   Clear
7:53 AM 25.0 °C - 22.2 °C 84% 1017.1 hPa 16.1 km SE 13.0 km/h / 3.6 m/s - N/A   Clear
8:53 AM 26.0 °C - 22.0 °C 78% 1017.5 hPa 16.1 km SE 22.2 km/h / 6.2 m/s 31.5 km/h / 8.7 m/s N/A   Partly Cloudy
9:53 AM 27.2 °C 29.4 °C 21.7 °C 72% 1017.8 hPa 16.1 km SE 16.7 km/h / 4.6 m/s - N/A   Partly Cloudy
10:53 AM 28.3 °C 30.5 °C 21.1 °C 65% 1017.3 hPa 16.1 km SE 18.5 km/h / 5.1 m/s - N/A   Clear
11:53 AM 28.3 °C 30.8 °C 21.7 °C 67% 1016.9 hPa 16.1 km SE 16.7 km/h / 4.6 m/s - N/A   Partly Cloudy
12:53 PM 28.9 °C 31.6 °C 21.7 °C 65% 1016.2 hPa 16.1 km SSE 14.8 km/h / 4.1 m/s - N/A   Clear
1:53 PM 27.8 °C 29.9 °C 21.1 °C 67% 1015.6 hPa 16.1 km South 11.1 km/h / 3.1 m/s - N/A   Clear
2:53 PM 28.9 °C 31.3 °C 21.1 °C 63% 1015.4 hPa 16.1 km SSE 13.0 km/h / 3.6 m/s - N/A   Scattered Clouds
3:53 PM 28.3 °C 30.8 °C 21.7 °C 67% 1015.3 hPa 16.1 km ESE 9.3 km/h / 2.6 m/s - N/A   Partly Cloudy
4:53 PM 26.7 °C 28.6 °C 21.7 °C 74% 1015.5 hPa 16.1 km ESE 16.7 km/h / 4.6 m/s - N/A   Clear
5:53 PM 24.4 °C - 21.7 °C 85% 1016.0 hPa 16.1 km East 13.0 km/h / 3.6 m/s - N/A   Clear
6:53 PM 23.9 °C - 21.7 °C 87% 1016.5 hPa 16.1 km East 9.3 km/h / 2.6 m/s - N/A   Clear
7:53 PM 23.9 °C - 21.7 °C 87% 1016.9 hPa 16.1 km East 9.3 km/h / 2.6 m/s - N/A   Scattered Clouds
8:53 PM 23.9 °C - 21.7 °C 87% 1017.2 hPa 16.1 km East 7.4 km/h / 2.1 m/s - N/A   Clear
9:53 PM 23.9 °C - 21.7 °C 87% 1017.1 hPa 16.1 km Calm Calm - N/A   Clear
10:53 PM 23.9 °C - 22.2 °C 90% 1017.0 hPa 16.1 km East 5.6 km/h / 1.5 m/s - N/A   Clear
11:53 PM - - - N/A% 1017.0 hPa 16.1 km Calm Calm - N/A   Mostly Cloudy